When you browse on this site, cookies collect data to enhance your experience and personalize the content and advertising you see.
Visit our Privacy Policy to learn more. By continuing to use the site, you agree to this use of cookies and data.
  • In United Kingdom
  • List of Countries
  • For 7 days
  • Water Temperature
  • Satellite Maps
  • Weather Map
  • Weather Widgets
  • user-avatar
    Login

    Hourly Weather Neiva

    Today, 21 November, Wednesday

    Time Temperature Precipitation Wind Pressure Humidity
    00:00 +26°C° 0.7 mm 1 mps 721 mmHg 82%
    01:00 +26°C° 0 mm 1 mps 721 mmHg 82%
    02:00 +25°C° 0.6 mm 1 mps 721 mmHg 83%
    03:00 +25°C° 0.6 mm 1 mps 720 mmHg 83%
    04:00 +25°C° 0.6 mm 1 mps 720 mmHg 84%
    05:00 +23°C° 0.2 mm 0 mps 721 mmHg 82%
    06:00 +24°C° 0.2 mm 0 mps 721 mmHg 81%
    07:00 +25°C° 0 mm 0 mps 721 mmHg 77%
    08:00 +26°C° 0.2 mm 0 mps 721 mmHg 73%
    09:00 +30°C° 0.2 mm 1 mps 722 mmHg 68%
    10:00 +31°C° 0.2 mm 1 mps 722 mmHg 64%
    11:00 +32°C° 0.3 mm 1 mps 721 mmHg 59%
    12:00 +33°C° 0.3 mm 1 mps 721 mmHg 55%
    13:00 +35°C° 0.3 mm 1 mps 720 mmHg 50%
    14:00 +34°C° 0.4 mm 1 mps 720 mmHg 53%
    15:00 +33°C° 0.4 mm 1 mps 719 mmHg 55%
    16:00 +32°C° 0.4 mm 1 mps 719 mmHg 58%
    17:00 +31°C° 0.5 mm 1 mps 719 mmHg 65%
    18:00 +29°C° 0.5 mm 1 mps 719 mmHg 73%
    19:00 +27°C° 0.5 mm 1 mps 720 mmHg 80%
    20:00 +26°C° 0.5 mm 1 mps 720 mmHg 81%
    21:00 +24°C° 0.5 mm 0 mps 721 mmHg 83%
    22:00 +24°C° 0.5 mm 0 mps 721 mmHg 84%
    23:00 +24°C° 0.3 mm 0 mps 721 mmHg 84%

    Tomorrow, 22 November, Thursday

    Time Temperature Precipitation Wind Pressure Humidity
    00:00 +23°C° 0.3 mm 0 mps 721 mmHg 85%
    01:00 +23°C° 0.3 mm 0 mps 721 mmHg 85%
    02:00 +23°C° 0.1 mm 0 mps 720 mmHg 85%
    03:00 +23°C° 0.1 mm 0 mps 720 mmHg 86%
    04:00 +23°C° 0.1 mm 0 mps 720 mmHg 86%
    05:00 +23°C° 0.1 mm 0 mps 720 mmHg 84%
    06:00 +24°C° 0.1 mm 0 mps 721 mmHg 83%
    07:00 +24°C° 0.1 mm 0 mps 721 mmHg 81%
    08:00 +28°C° 0.2 mm 1 mps 721 mmHg 76%
    09:00 +29°C° 0.2 mm 1 mps 722 mmHg 71%
    10:00 +30°C° 0.2 mm 1 mps 722 mmHg 66%
    11:00 +31°C° 0.4 mm 2 mps 721 mmHg 65%
    12:00 +31°C° 0.4 mm 2 mps 721 mmHg 64%
    13:00 +31°C° 0.4 mm 2 mps 720 mmHg 64%
    14:00 +31°C° 0.4 mm 2 mps 719 mmHg 65%
    15:00 +31°C° 0.4 mm 1 mps 719 mmHg 67%
    16:00 +30°C° 0.4 mm 1 mps 718 mmHg 68%
    17:00 +29°C° 0.3 mm 1 mps 719 mmHg 73%
    18:00 +28°C° 0.3 mm 1 mps 719 mmHg 78%
    19:00 +26°C° 0.3 mm 1 mps 719 mmHg 83%
    20:00 +26°C° 0.4 mm 1 mps 720 mmHg 83%
    21:00 +26°C° 0.4 mm 1 mps 721 mmHg 82%
    22:00 +26°C° 0.4 mm 1 mps 721 mmHg 82%
    23:00 +25°C° 0.6 mm 1 mps 721 mmHg 83%

    Day after tomorrow, 23 November, Friday

    Time Temperature Precipitation Wind Pressure Humidity
    00:00 +25°C° 0.6 mm 1 mps 721 mmHg 84%
    01:00 +25°C° 0.6 mm 1 mps 720 mmHg 84%
    02:00 +25°C° 0.4 mm 1 mps 720 mmHg 85%
    03:00 +22°C° 0.4 mm 0 mps 720 mmHg 85%
    04:00 +22°C° 0.4 mm 0 mps 719 mmHg 85%
    05:00 +22°C° 0.2 mm 0 mps 720 mmHg 84%
    06:00 +23°C° 0.2 mm 0 mps 720 mmHg 84%
    07:00 +23°C° 0.2 mm 0 mps 720 mmHg 84%
    08:00 +26°C° 0.1 mm 1 mps 721 mmHg 79%
    09:00 +28°C° 0.1 mm 1 mps 721 mmHg 74%
    10:00 +29°C° 0.1 mm 2 mps 721 mmHg 69%
    11:00 +30°C° 0.1 mm 2 mps 721 mmHg 65%
    12:00 +31°C° 0.1 mm 2 mps 720 mmHg 62%
    13:00 +32°C° 0.1 mm 2 mps 720 mmHg 58%
    14:00 +31°C° 0.2 mm 2 mps 719 mmHg 60%
    15:00 +31°C° 0.2 mm 2 mps 718 mmHg 63%
    16:00 +30°C° 0.2 mm 2 mps 718 mmHg 65%
    17:00 +28°C° 0 mm 1 mps 718 mmHg 72%
    18:00 +26°C° 0 mm 1 mps 718 mmHg 79%
    19:00 +23°C° 0 mm 0 mps 718 mmHg 85%
    20:00 +24°C° 0 mm 1 mps 719 mmHg 85%
    21:00 +24°C° 0 mm 1 mps 720 mmHg 84%
    22:00 +24°C° 0 mm 1 mps 721 mmHg 83%
    23:00 +24°C° 0.2 mm 1 mps 720 mmHg 82%

    24 November, Saturday

    Time Temperature Precipitation Wind Pressure Humidity
    00:00 +24°C° 0.2 mm 1 mps 720 mmHg 82%
    01:00 +24°C° 0.2 mm 1 mps 720 mmHg 82%
    02:00 +24°C° 0.1 mm 1 mps 719 mmHg 83%
    03:00 +23°C° 0.1 mm 1 mps 719 mmHg 83%
    04:00 +21°C° 0.1 mm 0 mps 719 mmHg 84%
    05:00 +22°C° 0 mm 0 mps 719 mmHg 82%
    06:00 +22°C° 0 mm 0 mps 720 mmHg 81%
    07:00 +23°C° 0 mm 0 mps 720 mmHg 79%
    08:00 +27°C° 0 mm 1 mps 720 mmHg 74%
    09:00 +28°C° 0 mm 1 mps 721 mmHg 70%
    10:00 +30°C° 0 mm 2 mps 721 mmHg 65%
    11:00 +31°C° 0.1 mm 2 mps 720 mmHg 62%
    12:00 +32°C° 0.1 mm 2 mps 719 mmHg 59%
    13:00 +34°C° 0.1 mm 2 mps 718 mmHg 56%
    14:00 +32°C° 0.3 mm 2 mps 718 mmHg 57%
    15:00 +32°C° 0.3 mm 1 mps 717 mmHg 59%
    16:00 +32°C° 0.3 mm 1 mps 717 mmHg 60%
    17:00 +30°C° 0.3 mm 1 mps 717 mmHg 67%
    18:00 +28°C° 0.3 mm 1 mps 718 mmHg 74%
    19:00 +26°C° 0.3 mm 1 mps 718 mmHg 81%
    20:00 +26°C° 0.3 mm 1 mps 719 mmHg 81%
    21:00 +26°C° 0.3 mm 1 mps 720 mmHg 82%
    22:00 +25°C° 0.3 mm 1 mps 721 mmHg 82%
    23:00 +25°C° 0.5 mm 1 mps 720 mmHg 82%

    25 November, Sunday

    Time Temperature Precipitation Wind Pressure Humidity
    00:00 +25°C° 0.5 mm 1 mps 720 mmHg 82%
    01:00 +25°C° 0.5 mm 1 mps 720 mmHg 82%
    02:00 +25°C° 1 mm 1 mps 719 mmHg 83%
    03:00 +24°C° 1 mm 1 mps 719 mmHg 85%
    04:00 +24°C° 1 mm 1 mps 719 mmHg 86%
    05:00 +23°C° 0.7 mm 0 mps 720 mmHg 85%
    06:00 +23°C° 0.7 mm 0 mps 720 mmHg 85%
    07:00 +23°C° 0.7 mm 0 mps 721 mmHg 85%
    08:00 +25°C° 0.5 mm 0 mps 721 mmHg 80%
    09:00 +28°C° 0.5 mm 1 mps 721 mmHg 75%
    10:00 +29°C° 0.5 mm 1 mps 722 mmHg 70%
    11:00 +30°C° 0.4 mm 1 mps 721 mmHg 65%
    12:00 +32°C° 0.4 mm 1 mps 720 mmHg 61%
    13:00 +34°C° 0.4 mm 2 mps 719 mmHg 56%
    14:00 +32°C° 0.4 mm 2 mps 718 mmHg 58%
    15:00 +32°C° 0.4 mm 1 mps 718 mmHg 59%
    16:00 +32°C° 0.4 mm 1 mps 717 mmHg 61%
    17:00 +30°C° 0.5 mm 1 mps 718 mmHg 67%
    18:00 +28°C° 0.5 mm 1 mps 718 mmHg 73%
    19:00 +25°C° 0.5 mm 0 mps 719 mmHg 80%
    20:00 +24°C° 0.3 mm 0 mps 719 mmHg 80%
    21:00 +26°C° 0.3 mm 1 mps 720 mmHg 81%
    22:00 +26°C° 0.3 mm 1 mps 721 mmHg 82%
    23:00 +26°C° 0.2 mm 1 mps 720 mmHg 83%

    26 November, Monday

    Time Temperature Precipitation Wind Pressure Humidity
    00:00 +26°C° 0.2 mm 1 mps 720 mmHg 84%
    01:00 +25°C° 0.2 mm 1 mps 719 mmHg 85%
    02:00 +25°C° 0.1 mm 1 mps 719 mmHg 85%
    03:00 +25°C° 0.1 mm 1 mps 719 mmHg 85%
    04:00 +25°C° 0.1 mm 1 mps 719 mmHg 86%
    05:00 +23°C° 0.1 mm 0 mps 720 mmHg 83%
    06:00 +23°C° 0.1 mm 0 mps 720 mmHg 81%
    07:00 +24°C° 0.1 mm 0 mps 721 mmHg 79%
    08:00 +28°C° 0.1 mm 1 mps 721 mmHg 72%
    09:00 +29°C° 0.1 mm 1 mps 721 mmHg 65%
    10:00 +31°C° 0.1 mm 1 mps 721 mmHg 58%
    11:00 +32°C° 0.2 mm 1 mps 720 mmHg 56%
    12:00 +34°C° 0.2 mm 2 mps 719 mmHg 54%
    13:00 +34°C° 0.2 mm 2 mps 718 mmHg 52%
    14:00 +34°C° 0.2 mm 2 mps 718 mmHg 54%
    15:00 +32°C° 0.2 mm 1 mps 717 mmHg 56%
    16:00 +32°C° 0.2 mm 1 mps 717 mmHg 58%
    17:00 +30°C° 0.2 mm 1 mps 717 mmHg 65%
    18:00 +28°C° 0.2 mm 1 mps 718 mmHg 72%
    19:00 +27°C° 0.2 mm 1 mps 719 mmHg 79%
    20:00 +26°C° 0.1 mm 1 mps 719 mmHg 80%
    21:00 +26°C° 0.1 mm 1 mps 720 mmHg 81%
    22:00 +26°C° 0.1 mm 1 mps 720 mmHg 81%
    23:00 +25°C° 0.1 mm 1 mps 720 mmHg 81%
    Show more